TimeEDT,TemperatureF,Dew PointF,Humidity,Sea Level PressureIn,VisibilityMPH,Wind Direction,Wind SpeedMPH,Gust SpeedMPH,PrecipitationIn,Events,Conditions,WindDirDegrees,DateUTC
12:54 AM,60.1,59.0,96,30.08,-9999.0,Calm,Calm,-,N/A,,Clear,0,2012-10-05 04:54:00
1:54 AM,57.9,57.9,100,30.08,-9999.0,Calm,Calm,-,N/A,,Clear,0,2012-10-05 05:54:00
2:54 AM,55.9,55.9,100,30.07,-9999.0,Calm,Calm,-,N/A,,Clear,0,2012-10-05 06:54:00
3:54 AM,57.9,55.9,93,30.07,-9999.0,Calm,Calm,-,N/A,,Clear,0,2012-10-05 07:54:00
4:54 AM,55.9,55.0,97,30.08,-9999.0,Calm,Calm,-,N/A,,Clear,0,2012-10-05 08:54:00
5:54 AM,54.0,53.1,97,30.09,-9999.0,Calm,Calm,-,0.01,,Clear,0,2012-10-05 09:54:00
6:54 AM,53.1,53.1,100,30.09,-9999.0,Calm,Calm,-,N/A,,Clear,0,2012-10-05 10:54:00
7:54 AM,55.0,54.0,96,30.09,-9999.0,Calm,Calm,-,N/A,,Clear,0,2012-10-05 11:54:00
8:54 AM,60.1,57.9,93,30.09,-9999.0,Calm,Calm,-,N/A,,Clear,0,2012-10-05 12:54:00
9:54 AM,68.0,57.9,70,30.09,-9999.0,West,3.5,-,N/A,,Clear,280,2012-10-05 13:54:00
10:54 AM,71.1,57.9,63,30.09,-9999.0,WNW,6.9,-,N/A,,Clear,290,2012-10-05 14:54:00
11:54 AM,73.9,57.0,55,30.07,-9999.0,West,4.6,-,N/A,,Clear,260,2012-10-05 15:54:00
12:54 PM,77.0,57.9,52,30.04,-9999.0,West,8.1,-,N/A,,Clear,270,2012-10-05 16:54:00
1:54 PM,77.0,57.9,52,30.00,-9999.0,South,5.8,-,N/A,,Mostly Cloudy,190,2012-10-05 17:54:00
2:54 PM,78.1,55.9,46,29.99,-9999.0,WNW,4.6,-,N/A,,Scattered Clouds,300,2012-10-05 18:54:00
3:54 PM,78.1,55.0,45,29.97,-9999.0,Variable,6.9,-,N/A,,Scattered Clouds,0,2012-10-05 19:54:00
4:54 PM,77.0,55.9,48,29.98,-9999.0,WSW,6.9,-,N/A,,Clear,250,2012-10-05 20:54:00
5:54 PM,73.9,57.0,55,29.98,-9999.0,WSW,3.5,-,N/A,,Clear,240,2012-10-05 21:54:00
6:54 PM,66.9,57.9,73,29.98,-9999.0,Calm,Calm,-,N/A,,Clear,0,2012-10-05 22:54:00
7:54 PM,64.0,60.1,87,29.98,-9999.0,Calm,Calm,-,N/A,,Clear,0,2012-10-05 23:54:00
8:54 PM,63.0,59.0,87,29.97,-9999.0,SSW,3.5,-,N/A,,Clear,210,2012-10-06 00:54:00
9:54 PM,63.0,57.9,84,29.96,-9999.0,Calm,Calm,-,N/A,,Clear,0,2012-10-06 01:54:00
10:54 PM,61.0,57.9,90,29.95,-9999.0,South,3.5,-,N/A,,Clear,170,2012-10-06 02:54:00